Vertical_Velocity
2 -1 4 -5 -5 -2 -2 -1 -2 1 1 3 0 1 -1 -2 1 0 -1 -2 1 4 -1 -2 -3 -0 -1 -2 5 -2 0 0 0 0 -2 -2 -1 -2 -0 0 0 -1 2 -0 -1 -1 0 0 1
1 -1 0 -4 -1 -3 1 -2 1 0 -1 -1 1 2 -2 -1 -1 -1 2 3 1 1 3 -2 -0 -2 -1 -2 -3 -0 1 -4 -3 -2 -1 -1 5 -0 2 -3 1 1 -0 -1 -0 -1 0 1 -1
2 -3 -0 -3 -1 0 1 0 0 1 1 -0 -2 1 -4 1 2 1 1 2 -0 -1 0 0 -1 -1 -2 -1 0 -3 -3 -1 -1 -2 2 -1 1 -1 -1 -1 0 0 -3 -0 1 -0 -0 -4 -0
3 1 3 -3 2 1 -4 0 1 -1 2 2 -1 -0 1 1 -1 -1 0 -1 0 2 -1 -1 -0 -1 -1 1 -3 2 -1 1 -1 2 3 1 1 -1 -1 1 0 -1 -1 0 0 1 2 1 -0
-1 6 -3 2 -0 -0 0 -2 -2 2 0 3 1 -1 0 0 -1 -1 2 2 -1 -1 -0 -1 1 -1 -1 1 -1 2 -3 2 -2 -2 -0 -2 -0 -1 -0 -2 -2 -1 -0 -0 0 -0 -1 -0 -1
0 -0 1 3 2 1 -1 -0 -3 -4 3 0 2 -3 1 1 -1 -1 -0 0 0 -0 0 3 -1 1 -1 -2 -0 -2 1 -2 -0 -0 0 1 1 -1 -0 -0 -1 -1 1 0 -1 -1 -1 2 -0
0 0 0 -2 -4 -1 -0 -2 -1 -0 -2 3 3 -3 -1 1 2 -1 -1 -0 0 0 -2 -0 -0 -1 -2 -2 4 0 3 -0 0 -2 3 -0 -4 -0 -1 -1 -1 1 -1 1 0 -2 0 -2 1
1 -3 -3 -1 0 0 1 -0 -2 -1 0 1 0 0 -3 -0 2 1 -0 -0 -2 1 -0 1 0 -1 -0 1 -4 -1 -0 -0 -2 -0 -1 2 2 -0 0 -0 -0 -4 -2 0 6 -2 -4 -3 1
1 -3 -1 -1 -1 1 2 3 -1 -2 -0 0 -0 1 -3 -0 0 0 -1 -1 -1 -1 0 0 -0 -2 1 -0 1 -1 3 -1 2 5 0 3 -1 1 1 0 -1 -2 0 8 -6 -1 0 2 -2
0 -1 2 2 -4 -0 -2 1 -7 -4 1 0 -1 -2 -0 -0 0 -0 0 -0 -0 -0 -1 -1 -1 -1 -1 3 -1 5 0 1 0 -0 -0 1 1 -0 2 1 -0 -0 -3 2 0 1 2 0 -0
0 -0 4 -2 0 -2 -3 -1 -5 -0 2 -0 1 -2 -2 -1 -0 1 1 0 -0 -1 -1 -2 -0 -1 -0 -0 1 -0 -1 -1 0 -1 1 1 0 -0 -1 -1 0 -2 0 -1 2 -1 0 -0 -1
-1 -1 2 4 -2 -1 -1 -0 -1 1 1 -1 0 -0 0 -1 -1 -0 -1 -1 -2 -0 -1 -1 -2 -1 -2 -1 2 -1 2 -1 -0 1 0 -1 -0 2 -0 -1 -1 -1 -1 -1 -1 -1 -0 0 1
-0 -0 1 1 -4 2 -2 0 -0 2 1 -1 1 2 -0 -0 -2 -2 -1 -2 -3 -2 -2 -1 -1 -2 -1 1 -0 -2 0 1 -0 -0 0 -1 -1 4 4 1 0 -0 2 1 0 -0 -1 -1 -0
-2 -1 -2 3 -4 1 -2 -0 2 0 2 0 1 0 -0 -1 -0 1 1 -0 -0 -0 0 -1 -1 -1 -1 0 0 -3 -2 3 1 -1 -0 -2 -3 -0 -2 -2 0 -1 1 2 1 1 2 2 2
-3 -2 1 2 -5 0 2 0 -2 3 -2 0 -0 -1 -0 -1 -1 -1 -1 -0 -1 -0 -1 -2 0 -3 -0 -1 -1 1 2 1 -0 -1 -0 -0 3 -2 -2 0 -0 0 1 -2 0 -1 -1 -1 -1
1 -6 1 -2 -2 1 -1 -1 0 1 3 2 -0 -0 -0 0 0 -0 -1 -1 -2 -1 0 1 -0 -1 -0 -2 -1 1 1 -1 0 0 -1 1 -2 -1 -1 1 -2 0 2 2 -1 1 3 1 1
0 2 -6 -5 -4 -1 -5 -2 2 0 1 -0 1 0 -0 -0 1 -1 -1 0 -0 -2 -1 -1 -0 -0 -1 -1 -1 -1 -2 2 -2 -3 -1 -1 -2 -1 -1 0 0 -0 -1 1 -1 1 -1 -4 -2
1 -5 -3 -1 4 0 -3 2 0 0 -2 0 0 1 1 0 0 2 -0 -1 0 0 -2 -1 -1 -0 0 -2 -1 -3 -3 -3 -1 -0 -1 -1 1 0 -0 -2 -1 -0 -0 2 1 -0 3 -0 -0
0 6 5 -1 3 -3 0 1 4 1 1 3 2 -0 1 2 1 -0 1 0 -1 1 1 -1 -2 0 -1 -0 -1 1 1 2 1 -2 -2 -2 -2 -2 -2 -0 -2 -4 -2 -3 -3 -0 -1 -0 1
2 0 -4 2 2 1 2 2 2 -4 -1 0 -1 -0 2 -1 2 2 1 -2 -2 -1 2 1 -1 -0 -1 -0 -0 1 -0 -1 -1 -1 -1 -1 -1 -1 -0 -1 -1 -1 -2 -0 -1 -0 -2 -1 -0
-1 -0 -0 1 -1 -2 1 -2 -2 1 1 2 -3 -2 -1 -2 -4 0 0 -1 -2 -2 -0 0 -1 -2 -3 -1 2 1 -1 -1 -0 -1 -1 -1 -0 -2 -1 0 -1 0 0 -0 1 1 1 -0 -1
-4 0 4 -1 -0 -3 3 -3 -5 -0 4 4 2 -0 -2 -3 -3 -3 0 1 -2 -1 -1 -1 -1 -0 -2 -1 -1 -2 -1 -1 -1 -2 -1 -1 -1 -1 0 1 2 1 0 -0 -1 -1 1 -1 -1
-0 -1 3 3 1 -0 -4 -5 10 2 -2 1 2 0 0 -2 0 -1 1 1 0 -2 -2 -0 -1 -2 -1 -0 -1 0 -0 -1 -2 -3 -2 -2 -0 2 0 -1 -1 -2 -0 1 0 -2 -2 -2 -2
5 7 4 5 2 -9 2 -3 4 -7 3 -1 4 3 1 -1 -3 -2 -1 0 3 2 1 -1 -1 -2 1 -1 -2 -2 -3 -1 -2 -1 0 -1 1 2 2 -0 -0 0 -2 -2 -1 -1 -1 -3 -1
4 4 -1 2 3 -5 1 -13 10 4 -5 -2 7 7 1 0 -2 -2 -1 1 -0 1 0 -1 -0 -0 0 -3 -3 -1 0 -3 -5 -2 -1 -1 1 1 -2 -3 -3 -2 0 0 1 1 -2 -1 -4
3 3 -1 -0 0 -0 -2 -18 16 6 -1 2 -2 4 -4 -0 1 2 1 -1 0 0 -1 -3 -0 -0 -2 -0 -1 -0 -0 1 1 1 -1 -1 -1 -0 -3 -1 -1 -2 -1 -1 1 1 -2 -2 -2
-4 -11 16 4 -0 -2 -4 -15 5 -8 -1 -2 -2 4 0 2 -4 -4 -2 1 -0 -1 1 -2 0 -1 -1 -2 -2 0 0 -1 -0 1 -0 2 1 -2 -2 -1 -1 -0 1 -0 -0 -0 -1 -2 -0
-10 20 2 1 -5 -2 -3 -8 -3 -2 -2 -1 1 3 -3 5 3 -2 -0 -1 -1 -1 0 1 -1 -1 -0 -1 -2 -1 1 -1 -1 -1 -1 -1 2 0 0 -2 -3 -0 0 -1 -2 -3 -2 0 -0
5 -12 -7 4 -0 -3 -2 -3 -0 -5 -2 -6 -11 -3 -3 -0 -2 -4 -0 -3 -1 -1 -2 -2 -1 -1 -3 -4 -2 -4 3 -1 -1 0 -0 -1 0 1 1 -2 -2 -3 2 -0 -2 -4 -4 -2 -3
9 3 7 1 -2 2 -3 -6 -3 4 -1 -1 7 -6 -0 2 -1 -1 2 -1 -1 -1 -3 -4 -3 -2 -1 -1 -2 0 -3 14 1 -1 1 2 2 4 2 1 -0 0 0 -1 -2 -2 -0 2 0
Height
5886 5883 5882 5881 5883 5880 5882 5883 5882 5883 5885 5886 5885 5886 5887 5888 5890 5894 5893 5893 5894 5894 5896 5897 5898 5899 5901 5903 5905 5904 5905 5904 5906 5906 5907 5907 5908 5908 5907 5907 5907 5907 5904 5904 5905 5905 5904 5904 5905
5889 5886 5885 5882 5883 5883 5885 5885 5885 5885 5887 5889 5889 5888 5889 5890 5891 5893 5895 5896 5896 5897 5897 5900 5900 5901 5903 5905 5906 5906 5905 5906 5907 5907 5908 5908 5907 5908 5908 5908 5908 5906 5905 5905 5905 5905 5904 5904 5905
5891 5889 5889 5886 5885 5884 5885 5887 5888 5889 5889 5890 5891 5892 5891 5892 5894 5895 5897 5898 5897 5898 5900 5900 5901 5903 5906 5905 5906 5907 5906 5907 5908 5907 5907 5908 5907 5908 5908 5908 5908 5906 5906 5905 5905 5904 5904 5904 5905
5893 5892 5891 5890 5887 5887 5888 5889 5890 5891 5892 5892 5892 5894 5896 5895 5896 5897 5898 5900 5900 5900 5901 5903 5903 5905 5906 5906 5906 5907 5907 5907 5907 5907 5907 5907 5908 5908 5908 5908 5907 5906 5906 5906 5905 5905 5905 5904 5906
5897 5897 5894 5893 5891 5890 5890 5891 5891 5892 5893 5894 5894 5894 5897 5898 5897 5899 5900 5902 5901 5902 5903 5904 5905 5905 5906 5907 5906 5907 5907 5907 5908 5908 5908 5908 5908 5908 5907 5907 5907 5907 5907 5905 5905 5904 5905 5905 5905
5899 5899 5899 5896 5894 5893 5894 5894 5892 5893 5895 5896 5897 5896 5899 5901 5900 5900 5901 5903 5904 5904 5905 5906 5906 5907 5907 5907 5907 5908 5907 5908 5907 5907 5907 5908 5907 5907 5907 5907 5907 5907 5907 5906 5905 5905 5905 5905 5906
5902 5901 5900 5899 5896 5897 5896 5895 5896 5896 5897 5899 5898 5898 5900 5902 5904 5903 5904 5905 5906 5906 5906 5907 5907 5907 5907 5907 5908 5909 5908 5908 5908 5908 5908 5909 5908 5907 5907 5907 5908 5908 5907 5906 5906 5905 5905 5906 5906
5902 5901 5902 5901 5900 5900 5898 5898 5897 5897 5897 5899 5900 5900 5901 5903 5904 5904 5906 5907 5907 5907 5907 5907 5908 5908 5909 5908 5909 5909 5909 5909 5909 5909 5909 5909 5909 5909 5908 5908 5908 5908 5907 5907 5905 5905 5905 5906 5906
5899 5900 5902 5902 5901 5902 5900 5899 5899 5898 5899 5900 5902 5902 5902 5903 5905 5905 5907 5908 5908 5909 5909 5909 5910 5910 5910 5910 5911 5911 5910 5911 5910 5910 5910 5911 5910 5910 5909 5909 5908 5907 5906 5906 5905 5904 5904 5904 5905
5901 5902 5904 5903 5902 5902 5900 5901 5901 5902 5901 5902 5903 5903 5903 5904 5905 5906 5907 5908 5909 5909 5910 5910 5911 5911 5912 5912 5912 5913 5912 5912 5912 5911 5912 5912 5912 5911 5911 5910 5909 5908 5907 5906 5905 5904 5904 5903 5903
5902 5904 5905 5903 5902 5902 5901 5901 5902 5903 5902 5903 5905 5905 5905 5905 5906 5906 5907 5908 5909 5909 5911 5912 5912 5912 5914 5914 5914 5914 5914 5913 5913 5913 5913 5913 5912 5911 5911 5910 5909 5908 5907 5907 5906 5904 5904 5903 5902
5903 5904 5904 5905 5903 5901 5902 5902 5903 5904 5905 5905 5907 5906 5906 5906 5907 5908 5908 5909 5910 5911 5912 5913 5914 5915 5915 5915 5916 5915 5915 5914 5914 5914 5914 5914 5913 5912 5911 5910 5909 5908 5908 5907 5906 5905 5903 5902 5902
5903 5904 5904 5905 5904 5902 5903 5904 5906 5906 5906 5906 5908 5908 5908 5908 5909 5909 5910 5911 5911 5913 5914 5915 5916 5917 5917 5917 5917 5916 5916 5915 5915 5915 5915 5914 5914 5913 5912 5911 5910 5909 5909 5908 5907 5905 5903 5901 5900
5901 5903 5903 5904 5904 5903 5904 5905 5907 5908 5908 5908 5908 5909 5909 5909 5910 5911 5912 5913 5913 5914 5915 5916 5917 5917 5917 5917 5917 5917 5916 5917 5916 5916 5915 5914 5914 5914 5913 5912 5911 5910 5909 5909 5907 5906 5904 5903 5901
5900 5902 5902 5904 5903 5903 5905 5907 5908 5910 5910 5909 5909 5909 5910 5910 5911 5912 5914 5914 5914 5914 5915 5916 5917 5918 5918 5918 5918 5918 5918 5917 5917 5916 5916 5915 5914 5914 5913 5912 5912 5911 5911 5909 5907 5906 5905 5904 5903
5899 5900 5902 5902 5903 5905 5906 5907 5909 5911 5911 5911 5910 5909 5910 5910 5911 5912 5914 5914 5915 5915 5916 5917 5918 5918 5919 5919 5918 5919 5919 5918 5917 5917 5916 5916 5915 5914 5913 5913 5913 5911 5910 5908 5908 5906 5905 5903 5901
5897 5901 5899 5902 5904 5905 5905 5907 5910 5912 5912 5912 5911 5911 5911 5911 5913 5913 5913 5915 5915 5915 5916 5917 5917 5918 5918 5918 5918 5918 5919 5918 5918 5917 5916 5916 5915 5914 5913 5912 5911 5910 5909 5907 5906 5905 5904 5903 5900
5897 5898 5899 5901 5906 5905 5906 5909 5911 5913 5913 5912 5911 5912 5912 5913 5914 5915 5914 5914 5915 5915 5915 5915 5916 5917 5917 5918 5918 5918 5917 5917 5918 5917 5916 5915 5914 5914 5913 5911 5911 5909 5908 5906 5904 5903 5901 5899 5897
5894 5898 5899 5900 5902 5904 5907 5909 5910 5910 5912 5913 5911 5911 5912 5914 5914 5915 5915 5914 5914 5914 5915 5915 5915 5917 5917 5917 5918 5918 5917 5918 5918 5918 5917 5916 5914 5913 5911 5910 5909 5907 5905 5903 5902 5901 5899 5897 5894
5890 5894 5896 5897 5899 5901 5904 5907 5909 5909 5910 5911 5911 5911 5911 5912 5913 5913 5913 5913 5912 5913 5914 5915 5914 5915 5915 5916 5916 5917 5917 5917 5916 5916 5915 5914 5912 5911 5910 5908 5905 5903 5901 5900 5899 5898 5897 5894 5892
5885 5891 5894 5897 5896 5897 5900 5903 5905 5907 5909 5909 5908 5909 5909 5909 5910 5910 5911 5911 5911 5912 5913 5914 5914 5914 5914 5914 5915 5915 5914 5914 5913 5912 5912 5912 5910 5909 5907 5904 5902 5900 5899 5897 5895 5893 5891 5891 5890
5879 5889 5891 5892 5894 5896 5898 5899 5901 5904 5906 5907 5907 5906 5905 5906 5907 5907 5908 5909 5909 5910 5911 5912 5912 5913 5913 5912 5912 5912 5912 5911 5910 5909 5908 5908 5907 5905 5903 5900 5898 5896 5895 5894 5892 5890 5888 5886 5884
5881 5883 5888 5888 5889 5891 5893 5894 5899 5898 5901 5905 5906 5905 5904 5903 5904 5905 5905 5907 5907 5907 5907 5908 5908 5908 5909 5909 5909 5908 5907 5906 5905 5904 5903 5902 5901 5899 5897 5894 5892 5891 5890 5889 5888 5886 5884 5881 5879
5878 5880 5882 5884 5884 5882 5890 5890 5892 5895 5898 5902 5904 5903 5903 5902 5901 5901 5901 5902 5903 5903 5904 5904 5904 5904 5904 5904 5903 5903 5901 5900 5900 5899 5898 5896 5895 5894 5893 5890 5888 5886 5885 5884 5882 5880 5879 5876 5874
5867 5873 5875 5877 5877 5877 5886 5885 5891 5893 5894 5897 5900 5901 5900 5900 5899 5897 5896 5897 5898 5898 5898 5898 5900 5900 5901 5899 5898 5898 5898 5896 5895 5894 5892 5891 5891 5890 5887 5884 5882 5882 5879 5877 5876 5875 5873 5871 5869
5862 5867 5867 5868 5873 5877 5880 5878 5890 5891 5891 5893 5895 5896 5897 5898 5897 5896 5893 5892 5893 5894 5893 5894 5895 5896 5896 5895 5894 5894 5893 5892 5890 5889 5887 5885 5884 5883 5881 5879 5877 5875 5874 5872 5871 5870 5868 5866 5864
5854 5856 5864 5866 5867 5869 5871 5874 5880 5885 5887 5889 5891 5893 5895 5895 5894 5892 5890 5889 5887 5887 5888 5889 5890 5891 5891 5890 5890 5889 5888 5887 5886 5884 5882 5881 5878 5877 5875 5873 5871 5870 5868 5867 5865 5864 5862 5858 5856
5844 5853 5857 5856 5857 5859 5863 5867 5873 5879 5883 5885 5887 5889 5891 5892 5890 5888 5888 5885 5884 5883 5884 5885 5886 5887 5887 5886 5884 5884 5882 5880 5878 5876 5875 5874 5873 5871 5868 5866 5865 5864 5862 5859 5858 5856 5854 5851 5848
5834 5838 5844 5849 5851 5853 5858 5861 5869 5873 5876 5879 5882 5885 5886 5887 5887 5886 5885 5884 5882 5880 5880 5882 5884 5884 5883 5882 5879 5877 5876 5874 5871 5869 5867 5865 5865 5864 5862 5860 5858 5856 5854 5852 5850 5848 5846 5842 5839
5827 5832 5839 5841 5845 5848 5852 5855 5864 5869 5871 5874 5878 5880 5882 5883 5883 5882 5881 5880 5879 5878 5878 5879 5880 5880 5879 5876 5873 5872 5868 5869 5864 5862 5860 5857 5856 5856 5854 5853 5851 5849 5847 5844 5842 5840 5838 5834 5831